Temp_Advection
nan nan nan nan nan nan nan nan nan nan nan nan nan nan nan nan nan nan nan nan nan nan nan nan nan nan nan nan nan nan nan nan nan nan nan nan nan nan
nan 0 0 0 0 0 0 0 0 0 0 -0 0 0 0 0 0 0 0 0 0 -0 -0 -0 0 -0 -0 -0 -0 -0 -0 -0 -0 -0 -0 -1 -0 nan
nan 0 1 0 0 0 0 0 0 0 0 0 0 0 0 0 0 0 0 0 0 0 -0 -0 -0 -0 -0 -0 -0 -0 -0 -0 -0 -0 -0 0 -0 nan
nan -0 0 0 0 0 0 0 0 0 0 0 0 0 0 0 0 0 -0 0 0 0 -0 0 0 -0 -0 -0 0 -0 -0 -0 -0 -0 -0 -0 0 nan
nan 1 0 0 0 -0 0 0 0 0 0 0 0 0 0 0 0 -0 -0 0 0 0 -0 -0 0 -0 -0 -0 -0 0 -0 -0 -0 -0 -0 -0 -0 nan
nan 1 0 -0 -0 1 1 0 0 1 0 0 0 0 1 1 0 -0 0 -0 -0 0 0 0 0 -0 -0 0 -0 -0 0 0 -0 -0 -0 -0 -0 nan
nan 0 -0 0 1 1 0 0 1 1 0 0 1 0 0 1 0 -0 0 -0 -0 -0 -0 0 -0 -0 -0 0 0 -0 0 0 0 -0 -0 -0 -0 nan
nan 0 1 1 1 0 1 1 1 0 0 1 1 0 0 1 1 0 -0 -0 -0 -1 -1 -0 0 -1 -1 -0 -0 -0 0 1 0 -0 -0 -0 0 nan
nan 0 0 0 1 1 1 1 1 0 0 1 1 0 0 0 0 0 0 0 0 -0 -1 -3 -1 -0 -1 -1 -1 -0 -0 0 0 -0 -1 -1 -0 nan
nan 1 0 -0 1 1 1 1 1 0 0 1 1 0 0 1 1 1 1 0 -0 0 0 -2 -2 -2 -2 -2 -1 -1 -1 -1 -0 -1 -1 -1 -0 nan
nan 0 0 0 1 1 1 1 0 0 1 1 1 1 1 1 1 1 0 0 -0 -0 0 -1 -2 -2 -4 -4 -2 -1 -1 -2 -1 -1 -1 -1 -1 nan
nan 0 0 1 1 1 0 1 0 1 1 1 1 1 1 1 1 1 1 0 -0 -1 -0 -1 -2 -1 -3 -4 -5 -2 -2 -2 -1 -0 -1 -2 -2 nan
nan 0 1 1 1 1 1 1 1 1 1 1 1 1 1 1 1 0 0 0 0 0 1 -1 -2 -1 -0 -3 -5 -2 -1 -1 -1 -0 -1 -3 -2 nan
nan 1 1 1 1 1 1 1 1 1 1 1 1 1 1 1 0 0 0 0 -0 -0 0 1 -0 -1 -0 -2 -4 -3 -1 0 0 -1 0 -2 -2 nan
nan 0 0 0 1 1 1 1 1 1 1 1 1 1 1 1 1 1 -0 -0 -0 -0 0 0 1 -0 0 0 -2 -2 -2 -3 0 -0 0 1 -3 nan
nan 0 1 1 1 1 1 1 1 1 1 1 1 1 1 1 1 0 -0 -0 -0 -0 0 0 0 0 -1 0 0 -1 0 -2 -2 1 0 1 -2 nan
nan 2 1 1 1 1 1 1 2 2 1 1 1 1 1 1 0 0 0 -0 -1 -1 0 0 0 -0 -0 -1 -0 -1 -1 -0 -1 -0 -1 -1 0 nan
nan 1 1 1 1 1 2 2 2 1 1 1 1 1 0 0 0 0 0 -0 -0 -1 -1 -1 -1 -1 -2 -2 -0 -1 -2 -1 -1 -0 -1 -6 -4 nan
nan 1 1 1 1 1 1 1 1 1 1 1 1 0 0 1 1 0 -0 -0 -0 -0 -0 -0 -1 -1 -2 -4 -4 1 -1 -2 -2 -2 0 -2 -6 nan
nan 0 0 1 1 1 1 1 1 1 0 0 0 0 1 1 0 0 -0 -0 -1 -1 -0 0 -0 -0 0 -0 -5 -2 1 -1 -1 -2 -0 -1 -2 nan
nan 1 1 1 1 1 1 1 1 0 0 0 0 1 0 0 0 0 0 -0 -1 -1 -1 -0 0 0 0 0 0 -4 -1 0 1 2 1 0 -6 nan
nan 1 1 1 1 1 1 1 1 1 1 1 1 1 0 0 0 0 0 -0 -0 -1 -1 -1 -0 0 0 -0 -0 -1 -3 -1 -2 1 2 2 1 nan
nan nan nan nan nan nan nan nan nan nan nan nan nan nan nan nan nan nan nan nan nan nan nan nan nan nan nan nan nan nan nan nan nan nan nan nan nan nan
Wind_Speed
34 30 29 25 23 19 16 13 14 11 12 14 13 12 12 12 13 13 14 16 17 19 22 24 25 26 26 27 28 30 32 34 35 36 37 37 39 40
36 34 31 28 25 22 20 17 17 16 14 13 12 13 12 14 15 15 16 17 18 19 21 23 25 27 28 29 31 32 34 35 36 37 37 38 37 36
38 37 34 31 29 25 23 22 21 19 18 20 18 17 17 17 18 19 18 19 20 20 22 25 26 27 28 30 31 32 34 36 37 38 38 35 36 40
40 38 37 34 33 30 28 26 23 23 22 23 21 20 20 21 21 21 20 21 22 22 24 27 27 27 29 31 31 33 35 37 37 35 34 36 37 38
39 39 38 38 37 34 32 30 28 27 25 26 24 23 23 24 23 23 23 24 25 26 26 28 27 27 30 30 30 32 35 35 33 31 35 36 37 37
39 39 39 38 37 36 35 33 31 30 29 28 28 27 26 27 26 26 25 26 27 28 28 29 27 29 30 30 29 32 34 32 30 34 34 36 37 36
36 36 37 37 36 37 35 36 34 33 33 31 32 30 28 28 28 27 26 28 29 30 29 31 31 32 31 29 31 33 34 27 34 34 37 39 40 39
34 34 31 32 34 35 37 36 36 35 35 32 33 33 29 28 29 27 28 29 31 32 32 33 36 35 35 31 31 32 29 35 35 35 39 41 40 40
31 32 33 33 31 34 38 38 38 37 36 34 33 33 31 30 29 29 29 29 30 30 35 36 34 37 35 34 32 29 30 34 36 39 39 40 39 42
28 30 31 30 30 31 33 37 39 38 38 36 35 33 34 33 31 30 29 29 28 30 31 37 36 39 39 36 30 28 36 37 38 41 41 40 41 44
27 29 28 29 29 30 30 32 36 36 36 34 33 35 36 35 32 29 27 25 27 28 32 33 36 44 44 38 28 39 42 39 44 44 43 40 42 46
27 28 28 27 26 27 28 30 32 34 35 34 35 37 36 33 31 28 25 22 23 25 27 32 36 39 39 35 43 42 41 47 48 44 39 45 44 50
29 29 27 25 26 27 27 27 27 26 29 32 33 32 29 27 25 23 21 21 22 23 25 29 33 35 35 45 46 44 46 51 49 44 46 48 48 49
25 24 23 22 22 23 23 23 24 25 28 30 32 31 28 26 23 21 20 20 21 22 23 27 31 31 35 44 47 49 49 48 47 44 50 51 53 52
22 22 21 22 23 23 23 24 23 26 27 28 30 30 27 23 22 21 18 19 20 21 23 23 27 30 32 37 44 48 52 52 44 50 52 54 56 53
25 26 26 25 24 22 23 23 24 25 25 26 27 27 25 22 20 19 18 20 21 21 22 23 25 29 32 33 37 41 41 45 51 51 53 56 57 51
27 26 25 24 24 25 27 27 25 22 23 23 23 23 22 20 18 19 19 19 18 19 23 25 26 28 29 30 32 34 41 45 46 50 53 59 57 50
26 25 25 25 25 26 27 28 24 21 21 21 21 21 20 21 20 16 14 15 18 21 23 24 27 30 30 29 30 37 40 44 46 47 50 57 61 51
24 24 24 25 26 26 26 24 23 21 20 21 22 22 21 18 13 12 14 15 17 19 21 21 23 26 29 34 36 31 40 41 46 48 49 50 52 51
21 22 24 24 25 24 24 24 23 21 20 21 19 17 15 13 12 13 12 14 16 18 20 18 21 23 25 29 35 35 33 39 42 48 53 51 46 44
26 25 22 22 23 23 24 24 21 20 19 17 15 14 12 11 11 10 10 12 15 18 20 19 19 20 24 28 33 39 36 32 32 41 48 49 50 50
24 22 20 21 22 23 25 25 23 21 19 17 15 14 13 12 10 8 9 13 15 17 20 20 20 22 24 29 35 38 41 40 35 30 35 32 34 37
24 22 21 21 22 23 24 26 23 20 19 17 16 14 12 10 8 7 9 12 15 17 19 21 20 22 26 30 33 38 41 43 47 43 38 33 30 29
Wind_Direction
215 215 219 221 223 223 224 221 226 231 248 249 247 253 257 261 266 275 282 292 301 311 315 315 316 316 315 314 315 316 316 315 314 313 313 313 312 311
219 220 222 223 225 226 228 230 234 236 240 255 252 254 258 264 270 274 282 290 297 309 316 318 319 318 317 317 317 316 315 313 313 314 314 313 312 310
222 224 226 228 229 230 233 235 237 241 244 254 257 261 263 267 270 274 280 287 293 304 312 314 316 319 317 316 316 315 314 314 316 316 315 313 312 313
225 228 230 231 233 234 235 239 242 244 247 253 255 260 264 265 266 272 278 284 289 298 304 309 313 313 315 316 318 317 315 317 317 316 313 312 312 312
231 232 233 234 236 238 240 242 244 247 248 251 257 260 263 264 266 270 276 281 287 293 300 303 308 311 313 316 318 316 315 316 314 312 315 315 312 313
232 234 236 238 240 243 243 245 246 248 250 252 254 255 259 263 266 270 276 280 285 291 298 300 305 309 311 316 317 315 315 317 316 319 318 316 316 320
232 236 239 241 242 244 244 246 247 248 249 251 254 255 257 263 267 271 277 282 288 292 297 300 305 309 315 317 319 319 320 320 323 324 323 323 324 325
236 239 243 244 242 243 244 245 246 249 250 252 255 257 261 264 267 273 279 285 291 294 297 299 311 313 314 318 320 320 318 325 325 325 327 324 324 321
239 241 243 245 246 244 242 242 243 244 247 250 252 258 261 263 267 272 277 282 287 294 298 304 308 310 314 316 321 318 321 324 328 330 329 324 326 323
236 242 244 243 244 246 245 244 244 243 245 247 251 256 259 262 265 268 274 280 287 294 302 308 313 312 314 317 321 322 328 329 331 333 330 328 331 325
233 236 240 243 243 245 247 246 246 247 247 247 249 252 254 258 263 268 271 280 289 297 305 308 317 317 318 321 327 331 331 333 335 336 331 328 331 328
234 235 237 243 246 247 251 251 250 247 247 246 244 246 253 258 261 263 270 280 291 305 307 312 318 324 325 320 324 331 330 335 336 332 328 333 339 335
230 232 234 235 238 242 249 252 255 249 246 243 243 246 249 254 256 263 270 279 291 301 306 313 317 319 315 315 320 330 334 332 334 334 334 336 341 339
232 234 232 233 240 244 248 249 248 245 239 239 240 240 244 248 256 263 268 280 294 301 304 309 311 314 314 315 319 325 331 332 336 334 336 335 339 339
228 232 231 231 233 237 239 242 241 242 239 235 236 237 240 246 254 259 271 286 294 297 302 305 306 310 313 315 318 327 331 333 336 336 336 335 337 341
226 226 226 225 227 230 231 234 235 239 239 237 234 233 237 240 248 261 279 285 288 294 298 304 307 310 313 316 319 326 332 334 334 337 335 333 337 343
225 219 218 218 219 220 223 227 231 230 228 226 225 228 233 238 251 268 275 283 290 298 301 309 313 312 314 321 325 335 335 336 337 335 334 334 337 344
217 217 216 218 223 224 222 223 223 223 219 217 218 224 232 245 255 264 272 286 295 301 307 315 318 321 325 328 338 340 338 337 335 336 340 338 334 343
216 214 215 218 220 220 224 223 221 215 213 215 218 225 239 247 246 257 273 286 295 305 314 324 330 333 334 334 334 351 338 338 339 338 341 340 333 337
220 219 219 222 222 221 220 217 215 214 213 217 222 227 226 232 244 261 274 289 302 312 319 328 335 337 336 329 326 339 353 345 343 338 342 338 340 339
210 215 219 221 219 217 216 214 215 215 217 218 217 219 221 233 246 261 284 305 316 317 320 329 335 333 331 333 335 339 348 353 351 344 347 340 343 342
214 214 215 213 213 213 211 209 209 211 213 213 212 214 220 225 243 266 292 311 320 322 321 327 335 337 343 344 339 341 345 351 356 357 358 351 338 317
211 209 207 208 209 206 206 206 209 210 209 208 208 207 216 225 247 271 295 313 321 326 328 331 336 345 347 347 344 346 351 352 354 355 359 0 360 352
Height
1532 1535 1539 1541 1544 1547 1549 1549 1554 1556 1559 1559 1557 1559 1560 1561 1560 1559 1559 1560 1559 1557 1555 1552 1549 1547 1545 1542 1538 1533 1529 1524 1519 1515 1510 1505 1500 1494
1527 1530 1533 1536 1540 1542 1545 1546 1550 1552 1555 1557 1555 1555 1555 1557 1557 1556 1555 1555 1555 1553 1551 1548 1545 1543 1540 1537 1533 1528 1523 1518 1513 1508 1503 1498 1492 1487
1521 1525 1528 1532 1535 1537 1540 1542 1546 1549 1549 1552 1552 1551 1551 1552 1553 1553 1551 1551 1550 1549 1547 1544 1541 1539 1535 1532 1528 1523 1517 1512 1506 1500 1495 1490 1484 1479
1515 1519 1523 1526 1530 1532 1534 1538 1541 1544 1545 1547 1546 1547 1547 1548 1547 1548 1546 1547 1545 1544 1542 1539 1537 1534 1531 1527 1523 1518 1512 1507 1499 1494 1488 1483 1476 1470
1510 1514 1517 1520 1523 1526 1529 1533 1536 1538 1538 1540 1540 1540 1541 1543 1543 1542 1542 1541 1540 1539 1536 1534 1531 1530 1527 1523 1517 1511 1505 1500 1493 1487 1481 1474 1469 1462
1504 1507 1510 1513 1517 1520 1523 1527 1529 1532 1534 1534 1534 1533 1534 1537 1538 1537 1536 1536 1534 1532 1531 1527 1525 1523 1521 1518 1513 1505 1499 1493 1487 1480 1474 1467 1461 1454
1495 1500 1504 1506 1511 1513 1516 1520 1523 1524 1526 1526 1529 1529 1527 1530 1533 1531 1530 1530 1528 1525 1523 1519 1517 1514 1513 1512 1506 1498 1492 1486 1479 1472 1466 1458 1451 1445
1490 1493 1497 1499 1503 1505 1510 1513 1517 1518 1519 1518 1522 1522 1523 1525 1526 1525 1524 1523 1522 1518 1513 1515 1507 1507 1505 1504 1499 1492 1486 1481 1473 1464 1457 1450 1444 1437
1483 1487 1490 1493 1496 1498 1502 1504 1508 1510 1511 1512 1514 1518 1518 1519 1519 1519 1519 1517 1516 1513 1506 1503 1504 1499 1497 1497 1494 1487 1481 1473 1466 1458 1450 1443 1436 1428
1475 1480 1484 1486 1488 1492 1494 1496 1499 1500 1502 1506 1509 1510 1512 1514 1514 1512 1512 1511 1510 1507 1502 1492 1494 1489 1488 1488 1486 1480 1473 1465 1458 1450 1442 1434 1426 1417
1466 1472 1476 1479 1484 1486 1488 1489 1490 1492 1496 1500 1502 1503 1504 1507 1507 1508 1507 1505 1503 1502 1495 1488 1486 1476 1475 1475 1476 1470 1463 1456 1448 1441 1433 1428 1420 1407
1459 1464 1468 1474 1477 1479 1481 1483 1482 1485 1490 1492 1492 1495 1498 1501 1502 1502 1502 1500 1499 1497 1491 1486 1483 1477 1463 1460 1464 1460 1453 1447 1439 1434 1426 1419 1411 1397
1454 1458 1463 1467 1471 1473 1475 1475 1479 1480 1482 1484 1486 1489 1490 1495 1496 1497 1497 1497 1496 1493 1488 1482 1480 1477 1471 1456 1449 1450 1444 1438 1430 1422 1415 1408 1401 1394
1449 1455 1458 1458 1461 1464 1468 1471 1473 1473 1475 1477 1481 1482 1486 1490 1491 1493 1493 1492 1492 1488 1485 1480 1475 1474 1465 1454 1445 1441 1436 1429 1422 1414 1406 1399 1392 1383
1443 1449 1452 1450 1454 1458 1462 1464 1466 1470 1469 1471 1475 1479 1482 1484 1486 1490 1487 1488 1487 1484 1481 1476 1472 1469 1464 1456 1444 1436 1425 1417 1415 1408 1399 1390 1382 1373
1439 1441 1443 1447 1448 1454 1456 1457 1459 1463 1466 1468 1472 1476 1480 1478 1482 1485 1483 1484 1483 1479 1475 1473 1470 1463 1457 1453 1445 1436 1431 1418 1408 1401 1392 1383 1375 1369
1433 1434 1437 1440 1444 1448 1450 1452 1452 1457 1461 1467 1469 1472 1477 1478 1480 1479 1479 1479 1478 1473 1471 1468 1464 1459 1454 1448 1441 1435 1424 1415 1408 1396 1385 1372 1366 1362
1425 1427 1432 1437 1440 1442 1445 1448 1449 1452 1459 1463 1465 1470 1476 1477 1476 1475 1474 1474 1473 1471 1468 1464 1459 1452 1446 1441 1438 1429 1423 1412 1403 1394 1385 1369 1351 1354
1421 1425 1427 1429 1435 1439 1444 1445 1449 1453 1455 1458 1461 1464 1470 1474 1473 1472 1471 1470 1470 1467 1465 1461 1456 1450 1442 1437 1434 1433 1420 1412 1398 1388 1381 1371 1357 1345
1418 1420 1423 1428 1432 1434 1441 1444 1449 1452 1453 1458 1460 1463 1467 1468 1470 1469 1468 1468 1467 1464 1461 1458 1454 1448 1443 1437 1429 1427 1423 1411 1399 1385 1373 1364 1357 1345
1411 1415 1419 1425 1428 1432 1437 1443 1447 1449 1452 1456 1458 1461 1464 1465 1468 1467 1466 1466 1463 1460 1457 1455 1452 1447 1441 1435 1428 1421 1418 1413 1404 1389 1375 1360 1347 1333
1409 1412 1418 1421 1424 1430 1436 1440 1444 1446 1449 1453 1454 1459 1461 1463 1465 1464 1463 1463 1460 1457 1455 1452 1448 1443 1438 1432 1426 1418 1411 1404 1400 1392 1384 1375 1361 1346
1406 1411 1414 1419 1425 1428 1432 1437 1442 1445 1448 1450 1452 1455 1458 1460 1461 1461 1461 1459 1456 1455 1451 1447 1444 1439 1436 1431 1424 1416 1408 1400 1390 1383 1376 1370 1361 1353